Content
SEND FEEDBACK

Daily
Averages
Monthly
Summary
Austria

LINZ, AUSTRIA


Home > Europe > Austria
Elevation: 970 feet     Latitude: 48 14N     Longitude: 014 11E

WEATHER
 
SELECT A DAY
Number of Records: 317,242;   Date Range: 7/1/96 - 10/1/14
 
SHARE

PRINT THIS DATA

[ ← Previous Day ]
WEATHER ALMANAC - JUNE 26, 2013
[ Next Day → ]
[ °C ]   °F
We're sorry. There is no daily almanac available for Linz, Austria on June 26, 2013.
WEATHER BY HOUR - JUNE 26, 2013
[ °C ]   °F
Local TimeTemperatureDewpointHumidityBarometerVisibilityWind DirectionWind SpeedGust SpeedPrecipitationEventsConditions
12:50 AM51.8 °F50.0 °F94 %30.24 in6.2 miWSW (250°)11.5 mphRainLight Rain
1:20 AM51.8 °F50.0 °F94 %30.24 in6.2 miWSW (250°)10.4 mphDrizzle
1:50 AM51.8 °F50.0 °F94 %30.24 in6.2 miWSW (250°)10.4 mphDrizzle
2:00 AM52.0 °F50.0 °F89 %30.25 in9.0 miWSW (250°)11.2 mph
2:20 AM51.8 °F50.0 °F94 %30.24 in6.2 miWSW (250°)8.1 mphDrizzle
2:50 AM51.8 °F50.0 °F94 %30.21 in6.2 miWSW (240°)9.2 mphLight Drizzle
3:20 AM51.8 °F50.0 °F94 %30.21 in6.2 miWSW (240°)8.1 mphRainLight Rain Showers
3:50 AM51.8 °F50.0 °F94 %30.21 in6.2 miWSW (240°)8.1 mphRainLight Rain Showers
4:20 AM51.8 °F50.0 °F94 %30.21 in6.2 miWSW (250°)6.9 mphMostly Cloudy
4:50 AM51.8 °F48.2 °F88 %30.21 in6.2 miWest (260°)9.2 mphMostly Cloudy
5:00 AM52.0 °F49.0 °F85 %30.24 in8.0 miWest (260°)8.9 mphRainLight Rain Showers
5:20 AM51.8 °F50.0 °F94 %30.21 in6.2 miWSW (250°)8.1 mphMostly Cloudy
5:50 AM51.8 °F48.2 °F88 %30.21 in6.2 miWest (260°)13.8 mphMostly Cloudy
6:20 AM51.8 °F48.2 °F88 %30.21 in6.2 miWest (260°)11.5 mphMostly Cloudy
6:50 AM51.8 °F48.2 °F88 %30.24 in6.2 miWest (260°)10.4 mphMostly Cloudy
7:20 AM51.8 °F48.2 °F88 %30.24 in6.2 miWest (260°)12.7 mphMostly Cloudy
7:50 AM51.8 °F48.2 °F88 %30.24 in6.2 miWest (260°)13.8 mphMostly Cloudy
8:00 AM53.0 °F48.0 °F78 %30.26 in16.0 miWest (260°)13.4 mphPartly Cloudy
8:20 AM53.6 °F48.2 °F82 %30.24 in6.2 miWest (260°)13.8 mphMostly Cloudy
8:50 AM53.6 °F48.2 °F82 %30.24 in6.2 miWest (270°)13.8 mphMostly Cloudy
9:20 AM53.6 °F48.2 °F82 %30.27 in6.2 miWest (270°)15.0 mphMostly Cloudy
9:50 AM55.4 °F50.0 °F82 %30.27 in6.2 miWest (270°)13.8 mphMostly Cloudy
10:20 AM55.4 °F48.2 °F77 %30.27 in6.2 miWest (280°)16.1 mphMostly Cloudy
10:50 AM55.4 °F48.2 °F77 %30.27 in6.2 miWest (280°)18.4 mphMostly Cloudy
11:00 AM56.0 °F47.0 °F65 %30.28 in19.0 miWest (280°)17.9 mphRainLight Rain Showers
11:20 AM57.2 °F48.2 °F72 %30.27 in6.2 miWest (280°)19.6 mphMostly Cloudy
11:50 AM57.2 °F46.4 °F67 %30.27 in6.2 miWest (280°)18.4 mphMostly Cloudy
12:20 PM57.2 °F44.6 °F63 %30.27 in6.2 miWest (270°)20.7 mphMostly Cloudy
12:50 PM57.2 °F44.6 °F63 %30.27 in6.2 miWest (280°)15.0 mphMostly Cloudy
1:20 PM59.0 °F46.4 °F63 %30.27 in6.2 miWest (270°)16.1 mphMostly Cloudy
1:50 PM59.0 °F44.6 °F59 %30.27 in6.2 miWest (260°)16.1 mphMostly Cloudy
2:00 PM58.0 °F44.0 °F49 %30.29 in25.0 miWest (260°)15.7 mphPartly Cloudy
2:20 PM55.4 °F42.8 °F63 %30.30 in6.2 miWNW (290°)23.0 mphMostly Cloudy
2:50 PM55.4 °F42.8 °F63 %30.30 in6.2 miWNW (300°)13.8 mphMostly Cloudy
3:20 PM55.4 °F42.8 °F63 %30.30 in6.2 miWNW (290°)16.1 mphMostly Cloudy
3:50 PM57.2 °F44.6 °F63 %30.30 in6.2 miWNW (290°)11.5 mphMostly Cloudy
4:20 PM57.2 °F42.8 °F59 %30.30 in6.2 miWest (270°)13.8 mphMostly Cloudy
4:50 PM57.2 °F44.6 °F63 %30.30 in6.2 miWest (270°)11.5 mphMostly Cloudy
5:00 PM58.0 °F45.0 °F51 %30.31 in28.0 miWest (270°)11.2 mphScattered Clouds
5:20 PM57.2 °F42.8 °F59 %30.30 in6.2 miWest (270°)11.5 mphMostly Cloudy
5:50 PM57.2 °F44.6 °F63 %30.30 in6.2 miWest (260°)11.5 mphMostly Cloudy
6:20 PM57.2 °F42.8 °F59 %30.30 in6.2 miWest (280°)11.5 mphMostly Cloudy
6:50 PM57.2 °F44.6 °F63 %30.30 in6.2 miWest (280°)8.1 mphMostly Cloudy
7:20 PM57.2 °F41.0 °F55 %30.30 in6.2 miWNW (300°)11.5 mphMostly Cloudy
7:50 PM55.4 °F41.0 °F58 %30.30 in6.2 miWNW (290°)12.7 mphMostly Cloudy
8:00 PM56.0 °F41.0 °F46 %30.32 in25.0 miWNW (290°)13.4 mphScattered Clouds
8:20 PM53.6 °F42.8 °F67 %30.30 in6.2 miWest (270°)6.9 mphMostly Cloudy
8:50 PM53.6 °F42.8 °F67 %30.33 in6.2 miWest (270°)8.1 mphMostly Cloudy
9:20 PM51.8 °F42.8 °F71 %30.33 in6.2 miWest (270°)8.1 mphMostly Cloudy
9:50 PM51.8 °F42.8 °F71 %30.33 inWest (260°)8.1 mphClear
10:20 PM51.8 °F42.8 °F71 %30.33 inWSW (250°)4.6 mphClear
10:50 PM50.0 °F42.8 °F76 %30.33 in6.2 miWSW (250°)4.6 mphMostly Cloudy
11:00 PM51.0 °F43.0 °F67 %30.35 in25.0 miWSW (250°)4.5 mphScattered Clouds
11:20 PM50.0 °F44.6 °F82 %30.33 in6.2 miWest (260°)5.8 mphMostly Cloudy
11:50 PM50.0 °F44.6 °F82 %30.33 in6.2 miSW (220°)4.6 mphMostly Cloudy
Hourly data recorded from LOWL, located miles away from Linz, Austria







STORIES FROM OUR PARTNERS